Regional Weather Roundup
Issued by NWS

Home | Current Version | Previous Version | Text Only | Print | Product List | Glossary On
Versions: 1 2 3 4 5 6 7 8 9 10 11 12 13 14 15 16 17 18 19 20 21 22 23 24 25 26 27 28 29 30 31 32 33 34 35 36 37 38 39 40 41 42 43 44 45 46 47 48 49 50
000
ASUS44 KLIX 050611
RWRLA
LOUISIANA WEATHER ROUNDUP
NATIONAL WEATHER SERVICE NEW ORLEANS LA
100 AM CDT SUN JUL 05 2015

NOTE: "FAIR" INDICATES FEW OR NO CLOUDS BELOW 12,000 FEET WITH NO
      SIGNIFICANT WEATHER AND/OR OBSTRUCTIONS TO VISIBILITY.
      SKY/WX - SKY CONDITION AND SIGNIFICANT WEATHER.
      TMP - AIR TEMPERATURE.    DP   - DEWPOINT TEMPERATURE.
      RH  - RELATIVE HUMIDITY.  PRES - PRESSURE.
      HX  - HEAT INDEX.         WCI  - WIND CHILL INDEX.

*  THESE STATIONS ARE NOT NWS OR FAA STATIONS AND ARE NOT UNDER
   NWS QUALITY CONTROL.

LAZ040-048-061>063-065-066-069-050700-
SOUTHEAST LOUISIANA

CITY           SKY/WX    TMP DP  RH WIND       PRES   REMARKS
N.O. AUDUBON     N/A     81  76  83 MISG        N/A
6HR MIN TEMP:  79; 6HR MAX TEMP:  85;

N.O. INTL ARPT MOCLDY    79  72  79 SE5       30.07F
6HR MIN TEMP:  76; 6HR MAX TEMP:  82;

N.O. LAKEFRONT PTCLDY    82  72  71 SE7       30.07F
6HR MIN TEMP:  82; 6HR MAX TEMP:  86;

N.O. DOWNTOWN* FAIR      82  72  69 SE3       30.08F
6HR MIN TEMP:  82; 6HR MAX TEMP:  86;

RESERVE*       FAIR      76  73  88 CALM      30.07F
6HR MIN TEMP:  76; 6HR MAX TEMP:  82;

SLIDELL        MOCLDY    73  72  96 CALM      30.07F
6HR MIN TEMP:  73; 6HR MAX TEMP:  78;

BATON ROUGE    CLOUDY    74  72  93 CALM      30.06S FOG
6HR MIN TEMP:  74; 6HR MAX TEMP:  75; 6HR PCP: TRACE;

BOOTHVILLE     MOCLDY    81  78  91 E3        30.10S
6HR MIN TEMP:  81; 6HR MAX TEMP:  86;

BELLE CHASSE   PTCLDY    75  73  93 CALM      30.07F FOG
6HR MIN TEMP:  75; 6HR MAX TEMP:  83;

BOGALUSA*        N/A     73  70  88 CALM      30.08F FOG
6HR MIN TEMP:  73; 6HR MAX TEMP:  76; 6HR PCP:  0.01;

GALLIANO*      LGT RAIN  79  76  91 CALM      30.09S
6HR MIN TEMP:  78; 6HR MAX TEMP:  87; 6HR PCP:  0.06;

NEW ROADS*     FAIR     N/A N/A N/A SE6       30.05F
GONZALES*      FAIR      75  75 100 CALM      30.06S
6HR MIN TEMP:  74; 6HR MAX TEMP:  79;

HAMMOND*       CLOUDY    73  70  88 CALM      30.08F
HOUMA*         MOCLDY    76  74  95 CALM      30.07F
6HR MIN TEMP:  76; 6HR MAX TEMP:  81;

PORT FOURCHON* CLEAR     84  75  74 S3        30.09F

$$

LAZ041-044-053-054-050700-
SOUTHWEST LOUISIANA

CITY           SKY/WX    TMP DP  RH WIND       PRES   REMARKS
LAKE CHARLES   PTCLDY    78  76  93 E5        30.04S
6HR MIN TEMP:  78; 6HR MAX TEMP:  83; 6HR PCP: TRACE;

LAFAYETTE      CLOUDY    75  74  96 CALM      30.06F
6HR MIN TEMP:  75; 6HR MAX TEMP:  76;

PATTERSON      CLOUDY    79  75  89 SE5       30.08F
6HR MIN TEMP:  77; 6HR MAX TEMP:  82;

SALT POINT       N/A     79  78  97 CALM      30.05F
6HR MIN TEMP:  79; 6HR MAX TEMP:  85;

NEW IBERIA     NOT AVBL
CHENAULT AIRPK PTCLDY    77  76  97 CALM      30.05S
6HR MIN TEMP:  76; 6HR MAX TEMP:  83;


$$

LAZ027-028-050700-
CENTRAL LOUISIANA

CITY           SKY/WX    TMP DP  RH WIND       PRES   REMARKS
FORT POLK      CLOUDY    73  72  96 SE6       30.03R
6HR MIN TEMP:  72; 6HR MAX TEMP:  74; 6HR PCP:  0.03;

ALEXANDRIA INT PTCLDY    71  70  96 S3        30.02R
6HR MIN TEMP:  71; 6HR MAX TEMP:  75; 6HR PCP:  0.95;

ALEXANDRIA     PTCLDY    73  69  87 CALM      30.04S
6HR MIN TEMP:  73; 6HR MAX TEMP:  76; 6HR PCP:  0.53;


$$

LAZ001-002-050700-
NORTHWEST LOUISIANA

CITY           SKY/WX    TMP DP  RH WIND       PRES   REMARKS
SHREVEPORT     CLOUDY    74  71  91 S6        30.01R
6HR MIN TEMP:  72; 6HR MAX TEMP:  76;

BARKSDALE AFB  CLOUDY    74  72  93 S6        30.01S
6HR MIN TEMP:  72; 6HR MAX TEMP:  74;

DTN SHREVEPORT CLOUDY    74  70  87 S6        30.01R
6HR MIN TEMP:  72; 6HR MAX TEMP:  74;


$$

LAZ014-016-050700-
NORTHEAST LOUISIANA

CITY           SKY/WX    TMP DP  RH WIND       PRES   REMARKS
MONROE         PTCLDY    71  70  96 S3        30.03R
6HR MIN TEMP:  71; 6HR MAX TEMP:  74; 6HR PCP:  0.01;

TALLULAH       PTCLDY    71  68  90 CALM      30.04R
6HR MIN TEMP:  70; 6HR MAX TEMP:  77; 6HR PCP:  0.03;


$$



USA.gov is the U.S. government's official web portal to all federal, state and local government web resources and services.